sat.trackr.live / text

‹ back to catalog

ONEWEB-0284

NORAD 49002 · 2021-060AM

PAYLOAD ACTIVE UNKNOWN

§ Identity

Operator
Country
UK
Launch date
2021-07-01
Launch site
VOSTO
Launch vehicle
Mass (kg)
RCS (m²)

Purposes: comms

External: N2YO · Heavens-Above · Gunter

§ Orbital elements

Epoch: 2026-05-25T04:53:39.190848Z

Period
109.37 min
Inclination
87.9105°
Eccentricity
0.0001892
Mean motion
13.16593004 rev/d
Perigee alt
1,196.3 km
Apogee alt
1,199.2 km
Semi-major
7,575.9 km
B*
1.8277e-5
RAAN
233.3357°
Arg perigee
110.0539°
Mean anomaly
250.0796°
Rev number
23,657

§ Raw data

ONEWEB-02841 49002U 21060AM  26145.20392582  .00000020  00000+0  18277-4 0  99932 49002  87.9105 233.3357 0001892 110.0539 250.0796 13.16593004236576

JSON: /api/v1/satellites/49002 · /tle

For live sub-satellite position, see the globe view (requires WebGL).

§ Visibility from observer

Set your observer location to see the next 7 days of passes ≥ 10°. The values pass through the URL so the page stays shareable.

No JS? Fill the form by hand. The geolocation button needs JavaScript.